Simultaneous Nadir Overpasses (SNOs) Predictions

Prediction of SNOs between AQUA and METOP-B Satellite Orbit:

Table of predicted SNOs for the next 14.0 days since TLE Epoch: 2/7/2016
Index Date (AQUA) Time (AQUA) Lat,Lon (AQUA) SZA (AQUA ) Date (METOP-B) Time (METOP-B) Lat,Lon (METOP-B) SZA (METOP-B ) Distance(km) Time Diff (sec)
1 02/09/2016 22:00:12 73.80,-155.79 88.54 02/09/2016 21:59:38 73.81,-155.91 88.56 3.53 34
2 02/09/2016 22:49:39 -73.88, 11.68 91.39 02/09/2016 22:50:18 -73.88, 11.60 91.39 2.24 39
3 02/12/2016 17:34:26 73.84, -89.42 87.66 02/12/2016 17:33:55 73.84, -89.40 87.67 0.96 31
4 02/12/2016 18:23:53 -73.91, 78.06 92.27 02/12/2016 18:24:35 -73.92, 78.11 92.27 2.03 42
5 02/15/2016 13:08:39 73.84, -22.96 86.71 02/15/2016 13:08:13 73.83, -23.03 86.71 2.14 26
6 02/15/201
